Location: Jilugum?du
(16.9358°N, 80.3533°E)
Time: 11:24:20
(UTC+00:00)

Daily predictions for brighter satellites

Satellite Brightness Start Highest point End
(mag) Time Altitude Azimuth Time Altitude Azimuth Time Altitude Azimuth
Palapa 6 Rocket 2.8 13:12:19 10° WNW 13:16:02 62° NNE 13:19:46 10° E
Cosmos 1300 Rocket 4.4 13:12:25 10° SSE 13:16:07 28° E 13:19:50 10° NNE
GPS 2-17 Rocket1 3.7 13:12:13 10° W 13:16:31 46° SSW 13:20:43 10° SE
Cosmos 1825 3.5 13:16:03 10° NE 13:18:19 17° E 13:20:35 10° SE
Cosmos 1703 3.9 13:17:22 10° NNW 13:21:03 58° W 13:24:43 10° S
Cosmos 2181 Rocket 4.3 13:16:44 10° SSE 13:22:29 44° E 13:28:18 10° NNE
SJ 16-02 3.2 13:21:22 10° NE 13:22:55 12° ENE 13:24:27 10° E
CBERS 1 LM4 rocket 4.3 13:20:00 10° SSE 13:24:43 66° ENE 13:29:22 10° N
Cosmos 1741 Rocket 4.1 13:22:01 10° N 13:27:10 55° ENE 13:32:19 10° SSE
Intelsat 5-3 Rocket 4.4 13:22:32 10° SW 13:28:17 57° SSE 13:43:01 10° ENE
Cosmos 2221 Rocket 3.6 13:26:34 10° N 13:31:07 77° E 13:35:37 10° S
CZ-4B R/B 3.4 13:26:19 10° SSE 13:31:18 74° ENE 13:36:10 10° N
Cosmos 1242 Rocket 4.2 13:31:18 10° NNW 13:33:57 30° W 13:36:36 10° SSW
Cosmos 1346 Rocket 3.6 13:34:39 10° SSW 13:38:23 52° W 13:42:06 10° N
Cosmos 1992 Rocket 4.3 13:34:31 10° SSW 13:39:41 72° WNW 13:44:52 10° N
Cosmos 1850 Rocket 4.0 13:38:58 10° NNW 13:44:13 87° WSW 13:49:24 10° SSE
IKONOS-2 4.4 13:41:50 10° NNE 13:46:01 71° ESE 13:50:09 10° S
SJ-6B 3.7 13:45:19 18° ESE 13:47:24 28° ENE 13:50:49 10° NNE
ADEOS Rocket 2.8 13:42:27 10° SSE 13:48:11 87° WSW 13:53:40 10° NNW
ARIANE R/B 4.5 13:46:20 10° SW 13:49:23 23° S 13:51:11 17° SE
Cosmos 1328 3.9 13:50:51 10° N 13:54:31 47° E 13:57:09 17° SSE
BREEZE-M DEB (TANK) 4.2 13:52:18 10° NW 13:56:39 80° NE 14:07:32 12° SE
Cosmos 2341 Rocket 3.9 13:52:25 10° N 13:58:37 70° E 14:04:46 10° S
Nadezhda 3 Rocket 4.4 13:53:31 10° SSE 13:59:04 37° E 14:04:37 10° NNE
[s.n.59506] 4.0 13:57:07 10° WNW 13:59:24 29° SW 14:00:20 22° S
[s.n.59505] 4.0 13:57:28 10° WNW 13:59:45 29° SW 14:00:39 22° S
[s.n.59504] 4.0 13:57:44 10° WNW 14:00:01 28° SW 14:00:54 22° S
[s.n.59503] 4.0 13:58:05 10° WNW 14:00:23 28° SW 14:01:15 22° S
[s.n.59502] 4.0 13:58:25 10° WNW 14:00:42 28° SW 14:01:33 22° S
[s.n.59501] 4.1 13:58:45 10° WNW 14:01:01 27° SW 14:01:52 22° S
[s.n.59500] 4.1 13:59:02 10° WNW 14:01:18 27° SW 14:02:08 22° S
[s.n.59490] 4.1 13:59:16 10° WNW 14:01:30 27° SW 14:02:20 22° S
[s.n.59499] 4.1 13:59:19 10° WNW 14:01:35 27° SW 14:02:24 22° S
[s.n.59498] 4.1 13:59:38 10° WNW 14:01:53 27° SW 14:02:42 22° S
[s.n.59496] 4.1 14:00:01 10° WNW 14:02:15 26° SW 14:03:04 22° SSW
[s.n.59497] 4.1 14:00:21 10° WNW 14:02:35 26° SW 14:03:23 22° SSW
Cosmos 1025 Rocket 2.9 13:58:19 10° N 14:02:39 65° E 14:06:23 14° SSE
[s.n.59495] 4.1 14:00:36 10° WNW 14:02:50 26° SW 14:03:37 22° SSW
Cosmos 2098 Rocket 3.4 13:57:00 10° S 14:02:51 78° E 14:07:39 10° N
[s.n.59494] 4.1 14:00:57 10° WNW 14:03:11 26° SW 14:03:57 22° SSW
[s.n.59493] 4.2 14:01:11 10° WNW 14:03:24 26° SW 14:04:11 22° SSW
[s.n.59492] 4.2 14:01:31 10° WNW 14:03:45 25° SW 14:04:30 22° SSW
CZ-4B R/B 4.0 14:01:49 25° ESE 14:03:55 32° ENE 14:08:51 10° NNE
[s.n.59491] 4.2 14:02:10 10° WNW 14:04:23 25° SW 14:05:07 21° SSW
[s.n.59487] 4.2 14:02:26 10° WNW 14:04:39 25° SW 14:05:22 21° SSW
Cosmos 2366 rocket 4.0 13:58:24 10° N 14:04:39 61° E 14:10:52 10° SSE
[s.n.59489] 4.2 14:02:43 10° WNW 14:04:54 24° SW 14:05:37 21° SSW
[s.n.59488] 4.2 14:03:03 10° WNW 14:05:14 24° SW 14:05:56 21° SSW
[s.n.59486] 4.3 14:03:25 10° WNW 14:05:37 24° SW 14:06:18 21° SSW
[s.n.59485] 4.3 14:03:41 10° WNW 14:05:52 24° SW 14:06:33 21° SSW
[s.n.59484] 4.3 14:03:55 10° WNW 14:06:05 24° SW 14:06:45 21° SSW
Resurs 1-3 3.5 14:09:42 25° SSE 14:12:11 68° ENE 14:16:30 10° N
YAOGAN 1 4.2 14:10:26 10° SSW 14:14:18 34° W 14:18:12 10° NW
SPOT 1/Viking Rocket 3.6 14:14:05 31° SE 14:16:20 54° ENE 14:21:24 10° N
Cosmos 1959 Rocket 4.4 14:10:50 10° N 14:16:59 72° E 14:22:49 12° S
Cosmos 1821 Rocket 4.4 14:12:47 10° NNE 14:18:23 38° E 14:19:15 36° ESE
Cosmos 2218 Rocket 3.9 14:12:15 10° N 14:18:36 79° E 14:24:52 10° S
Cosmos 44 3.4 14:16:05 10° SSW 14:21:20 72° ESE 14:26:42 10° NNE
GPS 2-14 Rocket1 3.6 14:18:44 10° W 14:21:33 30° SSW 14:21:33 30° SSW
H-2A R/B 2.4 14:05:39 10° WSW 14:23:44 87° SSE 14:25:19 41° ENE
Cosmos 1833 4.3 14:20:46 10° N 14:26:10 48° ENE 14:26:49 46° E
Atlas Centaur 2 3.8 14:22:32 10° WNW 14:27:11 24° NNW 14:30:28 13° NNE
USA 229 DEB 3.2 14:23:24 10° SSW 14:29:15 90° ESE 14:35:24 10° NNE
USA 229 3.2 14:23:28 10° SSW 14:29:21 88° ESE 14:35:30 10° NNE
Okean O Rocket 3.2 14:32:17 22° NNE 14:32:17 22° NNE 14:34:11 10° NNE
Cosmos 1975 Rocket 2.9 14:28:44 10° N 14:32:48 75° NE 14:32:48 75° NE
USA 186 4.5 14:40:19 13° N 14:40:19 13° N 14:40:42 10° N
CZ-4 R/B 2.1 14:39:46 43° SW 14:40:31 50° W 14:44:20 10° NNW
DELTA 4 R/B 3.3 14:35:10 10° W 14:41:27 58° NNW 14:43:51 36° NE
GOES 2 Rocket 3.2 14:37:29 10° WSW 14:41:56 75° S 14:41:56 75° S
Resurs 01 Rocket 2.9 14:46:33 30° N 14:46:33 30° N 14:48:53 10° N
Hubble Space Telescope 2.4 14:44:58 10° NW 14:47:28 26° NNW 14:47:28 26° NNW
Longmarch 3A Rocket 3.8 14:49:45 10° W 14:52:14 20° WSW 14:52:14 20° WSW
CSL-04 Debris 4.2 14:59:07 75° NNW 14:59:07 75° NNW 15:04:04 10° NNW
SJ 16-02 3.0 14:57:26 10° NW 15:01:09 29° W 15:01:36 28° WSW
CSL-04 Rocket 4.0 15:08:00 63° NW 15:08:00 63° NW 15:12:39 10° NNW
H-2A ROCKET BODY 4.4 15:08:46 10° WNW 15:16:44 83° SSW 15:25:21 48° SE
IUS-1 SRM-2 4.5 15:31:30 10° WSW 15:47:37 54° WNW 15:47:37 54° WNW
Centaur D-1AR AC-36 4.0 15:52:09 10° W 15:57:57 68° N 17:10:06 10° E
ATLAS 2AS CENTAUR R/B 4.5 21:33:55 22° NNW 21:33:55 22° NNW 21:36:43 10° N
SL-16 R/B 4.4 21:44:28 15° N 21:44:28 15° N 21:45:28 10° N
IUS-1 SRM-2 3.9 22:00:11 64° SSE 22:00:11 64° SSE 22:15:53 10° ESE
ISS -0.3 22:06:46 12° NE 22:06:46 12° NE 22:07:01 10° NE
SL-16 R/B 4.4 22:11:20 16° NNW 22:11:20 16° NNW 22:12:25 10° NNW
SL-24 R/B - RUBIN 2 4.5 22:07:18 63° ENE 22:07:18 63° ENE 22:12:29 10° NNE
Cosmos 1943 Rocket 4.0 22:07:10 10° NNW 22:08:42 19° NNW 22:08:42 19° NNW
ARIANE 5 R/B 4.0 22:14:45 28° S 22:16:32 31° SSE 22:37:07 10° E
ATLAS 5 CENTAUR R/B 2.7 22:14:40 38° WNW 22:19:47 73° N 22:24:31 10° E
USA 306 4.3 22:21:51 31° ENE 22:21:51 31° ENE 22:24:02 10° NE
Aurora 2 Rocket 3.8 22:22:15 59° WSW 22:24:06 88° NNW 22:30:48 10° ENE
Cosmos 2266 Rocket 3.8 22:25:51 68° WNW 22:25:51 68° WNW 22:31:45 10° N
Cosmos 1371 Rocket 3.9 22:25:14 10° NNW 22:36:52 - S 22:30:03 72° NW
CZ-2C R/B 3.7 22:26:37 10° N 22:29:26 29° NNW 22:29:26 29° NNW
USA 267 3.1 22:26:35 10° SE 22:33:08 86° SW 22:39:42 10° NW
GPS 2-15 Rocket1 3.1 22:34:28 75° NNW 22:34:33 75° N 22:39:26 10° ENE
BlueWalker 3 3.2 22:34:06 28° N 22:35:27 39° NE 22:39:01 10° ESE
Delta 128 4.2 22:34:52 44° NNW 22:35:36 48° NNE 22:39:55 10° E
Cosmos 1484 Rocket 3.4 22:34:38 10° NNE 22:38:05 47° E 22:38:22 46° ESE
BREEZE-M R/B 3.9 22:39:19 36° NW 22:39:41 37° NW 22:46:25 10° NNE
S3M 4.2 22:33:43 10° N 22:39:55 71° E 22:46:12 10° S
Cosmos 1707 4.0 22:45:18 28° NNW 22:45:18 28° NNW 22:47:11 10° N
Cosmos 1655 Rocket 3.9 22:46:28 32° SSW 22:49:20 62° W 22:55:28 10° N
Cosmos 2369 Rocket 4.2 22:45:04 10° N 22:49:51 29° ENE 22:54:37 10° SE
ATLAS 5 CENTAUR R/B 3.7 22:48:57 10° N 22:54:41 44° ENE 23:01:22 10° SE
Cosmos 1943 3.9 22:56:11 33° WNW 22:56:29 33° WNW 23:01:34 10° N
H-2A R/B 2.0 22:51:36 10° NNE 22:56:46 87° ESE 23:02:04 10° SSW
Cosmos 614 Rocket 3.8 22:57:40 19° SSW 23:01:22 89° E 23:06:27 10° NNE
GPS 2-12 Rocket1 3.4 23:02:45 31° WNW 23:04:43 58° N 23:09:16 10° E
Chandra Rocket (1) 4.1 23:03:49 10° NNW 23:06:27 20° NNE 23:11:25 10° ENE
ARIANE 5 R/B 4.0 22:56:45 24° WSW 23:06:29 44° SSW 23:12:07 10° SE
Cosmos 1939 Rocket 2.7 23:06:31 10° NNE 23:10:18 88° E 23:14:09 10° S
Cosmos 1656 Rocket 3.9 23:05:45 10° N 23:11:08 68° ENE 23:16:32 10° SSE
ARGOS 4.2 23:07:32 10° NNE 23:12:40 47° E 23:17:46 10° S
CZ-3 R/B 3.5 22:55:17 22° W 23:13:42 63° NNW 23:21:32 10° ENE
USA 276 2.3 23:14:31 39° NW 23:14:31 39° NW 23:17:09 10° NNE
Cosmos 2228 Rocket 3.0 23:10:42 10° S 23:15:08 86° E 23:19:32 10° N
Cosmos 2315 Rocket 3.9 23:10:17 10° N 23:16:29 84° W 23:22:42 10° S
DMSP B5D2-2 4.1 23:12:29 10° S 23:17:33 53° W 23:22:35 10° NNW
Cosmos 1470 2.6 23:19:46 10° NNW 23:23:28 57° W 23:27:10 10° S
ARIANE 5 R/B 2.7 23:22:23 10° NNE 23:27:35 76° ESE 23:32:42 10° S
Cosmos 1400 Rocket 3.4 23:26:43 10° S 23:30:25 55° E 23:34:10 10° NNE
SWIFT 2.9 23:28:29 18° SW 23:31:10 45° SSE 23:35:01 10° E
Cosmos 1110 Rocket 4.0 23:29:01 10° NNW 23:34:18 79° WSW 23:39:35 10° S
SL-08 R/B 4.5 23:30:12 10° S 23:36:29 78° W 23:42:50 10° N
Cosmos 1869 Rocket 3.5 23:32:42 10° NNW 23:36:56 62° W 23:41:10 10° S
ASC 2 Rocket 3.9 23:32:48 10° WNW 23:37:18 60° NNE 23:43:35 10° E
Cosmos 1452 Rocket 3.4 23:32:11 10° NNW 23:37:23 68° WSW 23:42:33 10° S
Skynet4D Del rocket 3.7 23:33:05 15° WSW 23:38:07 88° SSE 23:43:36 10° ENE
IRS-1C 4.1 23:32:50 10° N 23:38:09 76° WNW 23:43:27 10° SSW
H-2A R/B (2) 3.1 23:16:34 10° WNW 23:38:27 89° NNE 23:42:36 10° ESE
Meteor 1-22 Rocket 4.4 23:34:31 10° N 23:39:55 72° E 23:45:10 10° SSE
OAO 2 Rocket 3.8 23:36:15 10° SW 23:41:02 55° SE 23:45:55 10° ENE
FengYun 1-2 T 4.2 23:37:52 10° N 23:43:23 80° WNW 23:48:51 10° SSW
SL-14 R/B 3.6 23:42:56 10° SSW 23:46:41 44° W 23:50:28 10° N
Cosmos 1908 3.4 23:43:49 10° NNW 23:47:14 41° W 23:50:37 10° SSW
Okean 3 3.4 23:44:54 10° S 23:49:06 76° W 23:53:15 10° N
Sakura Rocket 4.1 23:47:05 11° WSW 23:49:29 19° SSW 23:52:15 10° SSE
CZ-2D R/B 3.7 23:45:36 10° NNE 23:49:47 80° ESE 23:54:04 10° S
ASTEX 1 3.8 23:46:01 10° SSE 23:50:55 70° E 23:55:51 10° N
Ariane 42P Rocket 4.4 23:50:03 10° SSW 23:52:01 14° SSE 23:55:10 10° SE
Lacrosse 5 rocket 1.4 23:49:54 10° SW 23:54:12 79° WNW 23:58:22 10° NNE
